{"data":{"norad_id":61744,"intl_designator":"2024-199K","name":"2024-199K","alt_names":[],"object_type":"PAYLOAD","status":"ACTIVE","operator":null,"country":"TBD","launch_date":"2024-11-04","launch_site_code":"VOSTO","launch_vehicle":null,"mission":null,"orbit_class":"UNKNOWN","rcs_meters":null,"size_class":null,"mass_kg":null,"dimensions":null,"purposes":[],"wikipedia_slug":null,"has_3d_model":false,"image_url":null,"decayed_at":null,"tle_current":{"epoch":"2026-05-25T03:31:40.591776Z","epoch_age_seconds":69232,"freshness":"FRESH","line1":"1 61744U 24199K   26145.14699759  .00026642  00000+0  46683-3 0  9994","line2":"2 61744  97.3006  20.0350 0008012  16.3415 343.8093 15.50527691130791","mean_motion":15.50527691,"eccentricity":0.0008012,"inclination_deg":97.3006,"raan_deg":20.035,"arg_perigee_deg":16.3415,"mean_anomaly_deg":343.8093,"bstar":0.00046683,"rev_number":13079,"period_min":92.87160805695,"perigee_km":409.74150914592,"apogee_km":420.62712722618,"semimajor_km":6793.321318186,"source":"CELESTRAK","updated_at":"2026-05-25T13:38:02.532036Z"}}}